Location: Hanover
(52.3667°N, 9.7167°E)
Time: 04:07:06
(UTC+02:00)

ARIANE 6 FM1 Upper Stage - Pass Details

Date: 21 September 2024
Orbit: 564 x 594 km, 62.0° (Epoch: 06 October)

Event Time Altitude Azimuth Distance (km) Brightness Sun altitude
Exits shadow 04:39:39 70° 222° (SW) 637 2.6 -21.9°
Drops below altitude 10° 04:43:58 10° 142° (SE) 1,930 5.5 -21.4°
Sets 04:46:14 0° 140° (SE) 2,829 6.4 -21.1°
